TimeEDT,TemperatureF,Dew PointF,Humidity,Sea Level PressureIn,VisibilityMPH,Wind Direction,Wind SpeedMPH,Gust SpeedMPH,PrecipitationIn,Events,Conditions,WindDirDegrees,DateUTC
12:15 AM,48.2,46.4,93,30.30,10.0,Calm,Calm,-,N/A,,Scattered Clouds,0,2013-05-03 04:15:00
12:35 AM,46.4,44.6,93,30.30,5.0,Calm,Calm,-,N/A,,Clear,0,2013-05-03 04:35:00
12:55 AM,46.4,44.6,93,30.30,5.0,Calm,Calm,-,N/A,,Clear,0,2013-05-03 04:55:00
1:15 AM,44.6,42.8,93,30.29,4.0,Calm,Calm,-,N/A,,Clear,0,2013-05-03 05:15:00
1:35 AM,44.6,42.8,93,30.28,2.0,Calm,Calm,-,N/A,,Clear,0,2013-05-03 05:35:00
1:55 AM,44.6,42.8,93,30.28,2.0,Calm,Calm,-,N/A,,Clear,0,2013-05-03 05:55:00
2:15 AM,44.6,42.8,93,30.28,2.5,Calm,Calm,-,N/A,,Clear,0,2013-05-03 06:15:00
2:35 AM,44.6,42.8,93,30.27,0.5,Calm,Calm,-,N/A,Fog,Fog,0,2013-05-03 06:35:00
2:55 AM,44.6,42.8,93,30.27,1.5,Calm,Calm,-,N/A,,Mist,0,2013-05-03 06:55:00
3:15 AM,42.8,42.8,100,30.27,0.5,Calm,Calm,-,N/A,Fog,Fog,0,2013-05-03 07:15:00
3:35 AM,44.6,42.8,93,30.26,0.8,Calm,Calm,-,N/A,,Mist,0,2013-05-03 07:35:00
3:55 AM,41.0,39.2,93,30.27,3.0,Calm,Calm,-,N/A,,Clear,0,2013-05-03 07:55:00
4:15 AM,42.8,39.2,87,30.27,0.5,Calm,Calm,-,N/A,Fog,Fog,0,2013-05-03 08:15:00
4:35 AM,42.8,39.2,87,30.27,0.5,Calm,Calm,-,N/A,Fog,Fog,0,2013-05-03 08:35:00
4:55 AM,42.8,41.0,93,30.28,0.5,ENE,3.5,-,N/A,Fog,Fog,70,2013-05-03 08:55:00
5:15 AM,44.6,42.8,93,30.28,0.5,Calm,Calm,-,N/A,Fog,Fog,0,2013-05-03 09:15:00
5:35 AM,42.8,42.8,100,30.29,1.5,Calm,Calm,-,N/A,,Mist,0,2013-05-03 09:35:00
5:55 AM,42.8,41.0,93,30.29,5.0,Calm,Calm,-,N/A,,Mostly Cloudy,0,2013-05-03 09:55:00
6:15 AM,42.8,41.0,93,30.30,0.5,Calm,Calm,-,N/A,Fog,Fog,0,2013-05-03 10:15:00
6:35 AM,42.8,39.2,87,30.31,3.0,Calm,Calm,-,N/A,,Scattered Clouds,0,2013-05-03 10:35:00
6:55 AM,44.6,42.8,93,30.31,5.0,North,3.5,-,N/A,,Clear,350,2013-05-03 10:55:00
7:15 AM,46.4,44.6,93,30.32,5.0,Calm,Calm,-,N/A,,Mostly Cloudy,0,2013-05-03 11:15:00
7:35 AM,48.2,46.4,93,30.33,7.0,Calm,Calm,-,N/A,,Mostly Cloudy,0,2013-05-03 11:35:00
7:55 AM,48.2,48.2,100,30.33,7.0,NE,3.5,-,N/A,,Mostly Cloudy,40,2013-05-03 11:55:00
8:15 AM,50.0,48.2,94,30.33,7.0,NE,4.6,-,N/A,,Overcast,40,2013-05-03 12:15:00
8:35 AM,51.8,48.2,88,30.34,10.0,NNE,3.5,-,N/A,,Overcast,30,2013-05-03 12:35:00
8:55 AM,53.6,48.2,82,30.34,10.0,NE,4.6,-,N/A,,Overcast,40,2013-05-03 12:55:00
9:15 AM,53.6,50.0,88,30.34,10.0,NE,10.4,-,N/A,,Overcast,50,2013-05-03 13:15:00
9:35 AM,55.4,50.0,82,30.34,10.0,NE,10.4,-,N/A,,Overcast,50,2013-05-03 13:35:00
9:55 AM,57.2,50.0,77,30.34,10.0,ENE,8.1,-,N/A,,Mostly Cloudy,70,2013-05-03 13:55:00
10:15 AM,60.8,50.0,68,30.34,10.0,ENE,5.8,-,N/A,,Mostly Cloudy,60,2013-05-03 14:15:00
10:35 AM,60.8,50.0,68,30.34,10.0,NE,4.6,-,N/A,,Mostly Cloudy,50,2013-05-03 14:35:00
10:55 AM,60.8,48.2,63,30.34,10.0,East,5.8,-,N/A,,Mostly Cloudy,100,2013-05-03 14:55:00
11:15 AM,62.6,48.2,59,30.35,10.0,East,10.4,-,N/A,,Mostly Cloudy,80,2013-05-03 15:15:00
11:35 AM,62.6,48.2,59,30.35,10.0,East,5.8,-,N/A,,Mostly Cloudy,90,2013-05-03 15:35:00
11:55 AM,62.6,48.2,59,30.34,10.0,ENE,9.2,-,N/A,,Mostly Cloudy,60,2013-05-03 15:55:00
12:15 PM,64.4,48.2,56,30.34,10.0,East,8.1,17.3,N/A,,Mostly Cloudy,100,2013-05-03 16:15:00
12:35 PM,64.4,46.4,52,30.33,10.0,SE,11.5,-,N/A,,Scattered Clouds,130,2013-05-03 16:35:00
12:55 PM,66.2,46.4,49,30.32,10.0,ENE,4.6,17.3,N/A,,Scattered Clouds,60,2013-05-03 16:55:00
1:15 PM,66.2,46.4,49,30.31,10.0,ENE,5.8,-,N/A,,Scattered Clouds,60,2013-05-03 17:15:00
1:35 PM,68.0,44.6,43,30.31,10.0,East,8.1,16.1,N/A,,Scattered Clouds,80,2013-05-03 17:35:00
1:55 PM,69.8,44.6,40,30.30,10.0,East,9.2,-,N/A,,Clear,90,2013-05-03 17:55:00
2:15 PM,69.8,44.6,40,30.29,10.0,ENE,12.7,18.4,N/A,,Clear,70,2013-05-03 18:15:00
2:35 PM,68.0,42.8,40,30.29,10.0,ENE,8.1,17.3,N/A,,Scattered Clouds,60,2013-05-03 18:35:00
2:55 PM,69.8,42.8,38,30.28,10.0,East,10.4,-,N/A,,Scattered Clouds,90,2013-05-03 18:55:00
3:15 PM,68.0,42.8,40,30.27,10.0,East,9.2,-,N/A,,Clear,100,2013-05-03 19:15:00
3:35 PM,68.0,42.8,40,30.26,10.0,East,6.9,-,N/A,,Clear,90,2013-05-03 19:35:00
3:55 PM,68.0,41.0,37,30.26,10.0,ENE,10.4,17.3,N/A,,Clear,70,2013-05-03 19:55:00
4:15 PM,68.0,41.0,37,30.26,10.0,NE,13.8,19.6,N/A,,Clear,50,2013-05-03 20:15:00
4:35 PM,68.0,39.2,35,30.25,10.0,East,11.5,17.3,N/A,,Clear,80,2013-05-03 20:35:00
4:55 PM,68.0,41.0,37,30.25,10.0,East,9.2,18.4,N/A,,Clear,90,2013-05-03 20:55:00
5:15 PM,66.2,39.2,37,30.26,10.0,East,12.7,19.6,N/A,,Clear,90,2013-05-03 21:15:00
5:35 PM,64.4,41.0,42,30.26,10.0,East,8.1,-,N/A,,Clear,90,2013-05-03 21:35:00
5:55 PM,64.4,42.8,45,30.26,10.0,ESE,9.2,-,N/A,,Clear,110,2013-05-03 21:55:00
6:15 PM,64.4,39.2,40,30.26,10.0,East,11.5,17.3,N/A,,Clear,80,2013-05-03 22:15:00
6:35 PM,62.6,37.4,39,30.27,10.0,East,11.5,-,N/A,,Clear,100,2013-05-03 22:35:00
6:55 PM,62.6,39.2,42,30.27,10.0,East,9.2,-,N/A,,Clear,80,2013-05-03 22:55:00
7:15 PM,60.8,41.0,48,30.28,10.0,East,10.4,16.1,N/A,,Clear,100,2013-05-03 23:15:00
7:35 PM,57.2,42.8,59,30.28,10.0,East,6.9,-,N/A,,Clear,90,2013-05-03 23:35:00
7:55 PM,55.4,41.0,58,30.29,10.0,East,6.9,-,N/A,,Clear,90,2013-05-03 23:55:00
8:15 PM,55.4,42.8,63,30.29,10.0,East,4.6,-,N/A,,Clear,100,2013-05-04 00:15:00
8:35 PM,53.6,41.0,62,30.29,10.0,East,4.6,-,N/A,,Clear,100,2013-05-04 00:35:00
8:55 PM,53.6,41.0,62,30.30,10.0,East,4.6,-,N/A,,Clear,100,2013-05-04 00:55:00
9:15 PM,51.8,41.0,67,30.30,10.0,East,5.8,-,N/A,,Clear,90,2013-05-04 01:15:00
9:35 PM,51.8,39.2,62,30.31,10.0,East,3.5,-,N/A,,Clear,100,2013-05-04 01:35:00
9:55 PM,48.2,39.2,71,30.32,10.0,East,3.5,-,N/A,,Clear,90,2013-05-04 01:55:00
10:15 PM,48.2,39.2,71,30.32,10.0,East,3.5,-,N/A,,Clear,80,2013-05-04 02:15:00
10:35 PM,46.4,39.2,76,30.32,10.0,East,3.5,-,N/A,,Clear,80,2013-05-04 02:35:00
10:55 PM,44.6,39.2,81,30.31,10.0,Calm,Calm,-,N/A,,Clear,0,2013-05-04 02:55:00
11:15 PM,44.6,39.2,81,30.30,10.0,Calm,Calm,-,N/A,,Clear,0,2013-05-04 03:15:00
11:35 PM,42.8,39.2,87,30.30,10.0,ENE,3.5,-,N/A,,Clear,70,2013-05-04 03:35:00
11:55 PM,41.0,37.4,87,30.30,10.0,Calm,Calm,-,N/A,,Clear,0,2013-05-04 03:55:00